User: anonymous   Login
Location: Greenwich
(51.4790°N, 0.0090°E)
Time: 19:42:40
(UTC+01:00)
Language:

Vanguard 2 Rocket - Orbit

View from above orbital plane
View from above orbital plane
View from above satellite
View from above satellite

Ground track
Ground track

The orbit data is extracted from the following two-line orbital elements,

1    12U 59001B   24114.16161561  .00003407  00000-0  20031-2 0  9999
2    12  32.9097 107.8777 1655984 273.7320  67.6253 11.46187138683695
Epoch (UTC): 23 April 2024 03:52:43
Eccentricity: 0.1655984
inclination: 32.9097°
perigee height: 555 km
apogee height: 3307 km
right ascension of ascending node: 107.8777°
argument of perigee: 273.7320°
revolutions per day: 11.46187138
mean anomaly at epoch: 67.6253°
orbit number at epoch: 68369

The dashed part of the orbit path shows where the satellite is in the earth's shadow,  

DLR